Location: Di Mezzo
(44.4833°N, 6.9833°E)
Time: 21:53:02
(UTC+00:00)

Daily predictions for brighter satellites

Satellite Brightness Start Highest point End
(mag) Time Altitude Azimuth Time Altitude Azimuth Time Altitude Azimuth
Cosmos 1140 Rocket 3.5 17:03:31 10° S 17:08:38 63° ESE 17:13:44 10° NNE
Cosmos 2322 Rocket 3.4 17:04:51 10° SSE 17:08:55 21° E 17:13:01 10° NE
USA 281 4.2 17:03:57 10° NNE 17:10:10 47° WNW 17:16:22 10° SW
Cosmos 1892 4.0 17:07:31 10° SE 17:10:15 20° E 17:13:00 10° NE
DELTA 2 DEB (DPAF) 4.1 17:09:33 10° NNE 17:13:57 72° ESE 17:18:20 10° S
SL-4 R/B 2.8 17:11:08 10° W 17:14:19 33° NNW 17:17:40 10° NE
BREEZE-M DEB (TANK) 2.9 17:07:22 10° WNW 17:14:48 74° SSW 17:17:37 10° SE
Meteor 2-17 Rocket 4.5 17:10:00 10° N 17:16:12 85° E 17:22:21 10° S
Cosmos 1023 Rocket 4.4 17:11:23 10° SSW 17:16:32 78° ESE 17:21:41 10° NNE
Cosmos 1408 3.0 17:14:23 10° SSE 17:17:29 35° E 17:20:38 10° NNE
IKONOS-2 4.5 17:13:23 10° NNE 17:17:40 71° ESE 17:21:53 10° S
Cosmos 1703 3.8 17:14:23 10° SSW 17:18:09 60° W 17:21:57 10° N
NOAA 6 4.0 17:13:02 10° SSE 17:18:10 77° ENE 17:23:21 10° N
SL-16 R/B 2.7 17:16:34 10° S 17:21:46 39° ESE 17:26:59 10° NE
ARGOS 4.3 17:17:43 10° S 17:22:53 49° W 17:28:07 10° NNW
Cosmos 1340 Rocket 2.7 17:22:11 10° S 17:26:00 72° E 17:29:55 10° NNE
Timation 2 Rocket 4.0 17:20:01 10° NNW 17:26:14 75° ENE 17:32:42 10° SSE
Cosmos 1633 4.2 17:24:47 10° ESE 17:26:14 12° E 17:26:54 12° ENE
SKYMED 2 3.7 17:22:37 10° NNE 17:26:53 52° E 17:31:06 10° S
Cosmos 1825 3.5 17:24:46 10° SE 17:27:25 19° E 17:30:05 10° NE
ATLAS CENTAUR R/B 2.2 17:22:57 10° SW 17:27:37 57° NW 17:32:08 10° NNE
BlueWalker 3 3.3 17:27:38 10° W 17:31:06 30° NNW 17:34:32 10° NE
NOSS 2-1 (C) 4.4 17:28:07 10° NW 17:32:38 73° SW 17:39:04 10° SSE
ISS -3.6 17:31:09 10° NW 17:34:29 58° NNE 17:37:28 12° ESE
BREEZE-M DEB (TANK) 2.6 17:32:04 10° W 17:35:04 74° N 17:40:31 13° E
Cosmos 1607 4.3 17:30:04 10° SW 17:36:08 64° NW 17:42:18 10° NNE
Cosmos 1980 Rocket 3.3 17:31:03 10° SW 17:36:28 45° WNW 17:41:55 10° NNE
YAOGAN 1 3.3 17:34:34 10° SE 17:38:21 31° ENE 17:42:09 10° N
Radarsat Rocket 4.2 17:33:26 10° SSE 17:39:23 82° WSW 17:45:59 10° NNW
Cosmos 1461 4.1 17:36:03 10° SSE 17:39:26 24° ESE 17:41:46 16° ENE
Cosmos 468 Rocket 4.5 17:39:20 10° N 17:44:07 36° ENE 17:48:50 10° SE
Cosmos 2237 4.5 17:39:40 10° S 17:45:07 48° ESE 17:50:37 10° NE
USA 290 4.1 17:44:46 10° SW 17:47:39 30° WNW 17:50:34 10° N
Cosmos 1536 Rocket 3.8 17:44:29 10° SSW 17:48:46 71° W 17:53:07 10° N
Cosmos 1869 4.5 17:46:28 10° NNE 17:49:27 21° ENE 17:50:12 20° E
APEX 4.3 17:43:24 10° SSW 17:49:30 81° ESE 17:55:15 10° NNE
SKYMED 3 4.4 17:46:04 10° NNE 17:50:11 64° E 17:54:17 10° S
Cosmos 1954 Rocket 4.1 17:45:35 10° S 17:50:41 53° ESE 17:55:46 10° NNE
Cosmos 2263 Rocket 3.3 17:46:54 10° NW 17:52:14 48° WSW 17:57:31 10° S
Cosmos 1606 Rocket 3.4 17:58:46 10° N 18:03:04 65° E 18:07:21 10° SSE
PSLV R/B 3.6 18:00:24 10° SSE 18:03:59 61° ENE 18:07:38 10° N
Cosmos 1763 Rocket 3.4 17:59:48 10° NNW 18:04:59 66° ENE 18:10:03 10° SSE
USA 215 4.3 17:59:25 10° SSE 18:05:40 46° SW 18:11:57 10° WNW
Genesis I 4.4 18:03:45 10° S 18:06:50 24° ESE 18:06:50 24° ESE
CZ-4 R/B 1.9 18:04:06 10° SE 18:07:55 38° ENE 18:11:43 10° N
Meteor 1-11 4.2 18:03:34 10° S 18:09:22 78° E 18:15:11 10° NNE
MOS 1-B 4.3 18:05:07 10° SSE 18:10:50 65° ENE 18:16:36 10° N
Cosmos 2228 3.8 18:07:55 10° NNW 18:12:03 54° W 18:16:09 10° S
ATLAS 2AS CENTAUR R/B 2.6 18:05:17 10° NW 18:12:20 77° NE 18:18:57 10° SE
Cosmos 1892 Rocket 3.7 18:08:16 10° SSE 18:12:33 50° E 18:16:49 10° NNE
Lacrosse 5 rocket 2.5 18:10:14 10° NNW 18:13:08 22° NNE 18:13:08 22° NNE
COSMO-SKYMED 1 3.6 18:10:41 10° N 18:14:52 48° WNW 18:19:02 10° SW
Cosmos 841 Rocket 4.1 18:10:45 10° N 18:15:31 33° ENE 18:16:40 30° E
Cosmos 1244 Rocket 4.4 18:12:43 10° N 18:19:06 76° E 18:25:22 10° SSE
IRIDIUM 103 4.3 18:15:34 10° N 18:20:43 57° E 18:25:51 10° SSE
MINOTAUR 4 R/B 3.8 18:19:36 29° NNE 18:21:12 72° ESE 18:24:35 10° S
CZ-4B R/B 3.0 18:16:57 10° SSE 18:22:15 74° ENE 18:27:40 10° N
Cosmos 1844 Rocket 2.6 18:18:10 10° NNW 18:23:45 67° ENE 18:28:57 12° SE
RESURS DK-1 2.8 18:20:03 10° NNW 18:23:47 39° NE 18:23:47 39° NE
Cosmos 540 Rocket 3.4 18:19:56 10° NNW 18:25:03 63° ENE 18:29:30 13° SSE
Cosmos 1745 Rocket 4.1 18:26:37 10° N 18:32:40 48° ENE 18:38:36 10° SSE
Cosmos 676 Rocket 4.1 18:27:54 10° SSW 18:33:11 76° WNW 18:38:26 10° NNE
Cosmos 1844 3.6 18:27:31 10° NNW 18:33:19 69° ENE 18:37:20 20° SE
Cosmos 1726 Rocket 3.7 18:31:43 10° NNW 18:36:02 73° W 18:40:18 10° S
Lacrosse 5 1.9 18:31:15 10° SW 18:36:21 81° NW 18:38:20 38° NE
Gblst 52 Del rocket 4.3 18:31:14 10° WSW 18:36:47 63° NNW 18:39:00 35° NE
Okean O Rocket 1.4 18:33:29 10° SSE 18:37:50 74° ENE 18:42:15 10° N
IRIDIUM 106 4.2 18:33:48 10° N 18:39:03 83° E 18:44:15 10° S
Cosmos 1386 Rocket 4.4 18:34:37 10° N 18:40:34 59° ENE 18:46:30 10° SSE
Cosmos 2360 Rocket 2.1 18:35:58 10° SSW 18:41:35 80° ESE 18:44:47 27° NNE
Feng Yun 1-1 Rocket 4.1 18:36:06 10° SSE 18:41:40 72° ENE 18:47:08 10° N
Cosmos 2333 Rocket 2.2 18:37:24 10° S 18:42:52 54° ESE 18:43:54 47° ENE
Cosmos 2219 Rocket 2.9 18:38:00 10° S 18:41:44 32° SE 18:41:44 32° SE
Cosmos 2278 Rocket 4.1 18:45:43 10° N 18:47:29 15° NNE 18:47:29 15° NNE
Cosmos 1709 Rocket 4.5 18:45:35 10° N 18:50:12 38° NE 18:50:12 38° NE
Cosmos 2322 Rocket 2.6 18:46:56 10° SW 18:52:28 60° WNW 18:56:48 17° NNE
SL-4 R/B 3.5 18:51:12 10° NW 18:53:25 24° NNW 18:53:25 24° NNW
Cosmos 1553 Rocket 4.0 18:49:40 10° SSW 18:55:44 76° W 19:01:54 10° N
Cosmos 1417 Rocket 4.4 18:52:25 10° S 18:58:42 84° E 19:04:57 10° N
Cosmos 1633 3.9 18:56:55 10° SW 19:00:01 34° WNW 19:00:25 33° WNW
Cosmos 1825 4.1 18:59:11 10° SW 19:02:24 28° WNW 19:05:38 10° NNW
SL-16 R/B 3.6 19:00:44 10° WSW 19:05:54 35° NW 19:10:52 11° N
Cosmos 2333 4.0 19:00:24 10° SSW 19:05:59 79° ESE 19:06:19 75° ENE
ATLAS CENTAUR R/B 4.2 19:04:54 10° WNW 19:07:04 13° NNW 19:09:11 10° N
Cosmos 2058 Rocket 3.5 19:03:51 10° NNW 19:08:11 59° W 19:09:52 34° SSW
BlueWalker 3 4.2 19:07:28 10° NW 19:09:19 19° NNW 19:09:19 19° NNW
ISS -1.3 19:08:18 10° W 19:10:24 21° WSW 19:10:24 21° WSW
CSL-04 Debris 4.0 19:12:46 81° NNE 19:12:46 81° NNE 19:17:59 10° NNW
Cosmos 1461 4.1 19:13:58 10° WSW 19:17:57 41° NW 19:17:57 41° NW
CSL-04 Rocket 4.1 19:22:04 53° NNW 19:22:04 53° NNW 19:26:07 10° NNW
S3M 4.2 19:23:28 10° SSW 19:29:50 70° W 19:36:14 10° N
CZ-2C R/B 3.8 19:30:39 60° NNE 19:31:46 81° E 19:48:00 10° S
CZ-4 R/B 4.0 19:39:54 10° SW 19:42:55 19° W 19:45:55 10° NW
Lacrosse 5 4.3 20:15:40 10° WNW 20:17:33 19° WNW 20:17:33 19° WNW
Cosmos 2360 Rocket 4.4 20:22:14 10° W 20:26:16 20° NW 20:26:38 20° NW
Cosmos 2219 Rocket 4.4 20:21:53 10° WSW 20:23:33 19° WSW 20:23:33 19° WSW
Cosmos 2333 Rocket 4.2 20:22:42 10° WSW 20:26:00 24° WNW 20:26:00 24° WNW
